Starlink 31422

operational
NORAD ID: 59354 Int'l Des: 2024-060 Owner: SPXS Country: US Constellation: starlink
LEOCIRCULAR

Starlink 31422について

説明を読み込み中...

リアルタイム位置

3D地球を読み込み中...

次回通過

高度履歴

Altitude vs Time

uPlot chart will show altitude changes over time

軌道要素

1 59354U 24060G 25259.14290690 .00007482 00000-0 28122-3 0 9991
2 59354 43.0034 165.9933 0000901 263.3055 96.7695 15.27570070 83368
Epoch: Sep 16, 2025 • Age: 18 hours

現在のステータス

高度 484.2 km
速度 7.63 km/s
衛星直下点 30.76°N, 12.65°W
打ち上げ日 Mar 31, 2024
運用期間 1.4 years
タイプ internet

技術仕様

分類 Payload
質量 730.00 kg
乾燥質量 700.00 kg
総質量 730.00 kg
長さ 0.30 m
直径 4.10 m
スパン 29.00 m
形状 Box + pan
製造者 SPXS
バスタイプ Starlink V2M
フェーズステータス In Orbit
所有者/国 SPXS/US

大規模コンステレーション

Loading constellations...